Overview Statistics Trail Chart Weather Telemetry Raw packets
 

This is the latest recevied weather packets stored in our database for station/object W5GMO. If no packets are shown the sender has not sent any weather packets the latest 10 day(s).

<< 15 16 17 18 19 20 21 >>
Time Temp. Humidity Pressure Rain* Wind** Luminosity Snow
1788533502 28.33° C 1% 1014.9 hPa 0 mm - 594 W/m² -
1788533198 28.33° C 1% 1015.1 hPa 0 mm - 584 W/m² -
1788532894 28.33° C 1% 1015 hPa 0 mm - 577 W/m² -
1788532589 27.78° C 1% 1014.9 hPa 0 mm - 564 W/m² -
1788532286 27.78° C 1% 1014.9 hPa 0 mm - 561 W/m² -
1788531982 27.22° C 1% 1014.8 hPa 0 mm - 573 W/m² -
1788531678 27.78° C 1% 1014.9 hPa 0 mm - 413 W/m² -
1788531372 27.78° C 1% 1015.1 hPa 0 mm - 552 W/m² -
1788531069 27.78° C 1% 1015 hPa 0 mm - 506 W/m² -
1788530764 27.78° C 1% 1014.9 hPa 0 mm - 222 W/m² -
1788530463 27.22° C 1% 1014.7 hPa 0 mm - 500 W/m² -
1788530163 27.22° C 1% 1014.9 hPa 0 mm - 482 W/m² -
1788529859 27.78° C 1% 1014.9 hPa 0 mm - 461 W/m² -
1788529554 27.22° C 1% 1015.1 hPa 0 mm - 446 W/m² -
1788529249 27.22° C 1% 1014.9 hPa 0 mm - 436 W/m² -
1788528943 27.22° C 1% 1014.9 hPa 0 mm - 424 W/m² -
1788528640 26.67° C 1% 1015 hPa 0 mm - 403 W/m² -
1788528339 26.11° C 1% 1014.7 hPa 0 mm - 391 W/m² -
1788528039 26.11° C 1% 1014.9 hPa 0 mm - 378 W/m² -
1788527753 25.56° C 1% 1014.9 hPa 0 mm - 361 W/m² -
1788527435 25° C 1% 1014.7 hPa 0 mm - 348 W/m² -
1788527134 25° C 1% 1014.8 hPa 0 mm - 332 W/m² -
1788526829 25° C 1% 1014.9 hPa 0 mm - 319 W/m² -
1788526526 25° C 1% 1014.9 hPa 0 mm - 308 W/m² -
1788526220 25° C 1% 1015 hPa 0 mm - 306 W/m² -

* Rain latest hour (hover to see other rain measurements)
** Current wind speed in m/s (hover to see current wind gust speed)